< < Back
Terminal Aerodrome Forecast


Current Version              Previous Versions:   1  2  3  4  5  6  7  8  9  

Terminal Aerodrome Forecast

461
FTUS42 KFFC 211127
TAFFTY
TAF
KFTY 211127Z 2112/2212 00000KT P6SM SCT250
     FM211400 36004KT P6SM FEW050 SCT250
     FM211800 03005KT P6SM FEW250
     FM220000 08005KT P6SM SCT250=



Latest METAR

860
SAUS70 KWBC 220300 RRP
MTRFTY
METAR KFTY 220253Z 00000KT 10SM CLR 04/01 A3041 RMK AO2 SLP301 T00390011
51013


USA.gov is the U.S. government's official web portal to all federal, state and local government web resources and services.